ORBCOMM FM06 1 25118U 97084G 26131.99854882 .00000715 00000+0 23199-3 0 9990 2 25118 45.0135 226.9139 0001512 209.8279 319.6656 14.47473422489145 ORBCOMM FM04 1 25159U 98007C 26132.16308667 .00000614 00000+0 25607-3 0 9990 2 25159 107.9624 95.2835 0039959 27.3665 332.9570 14.35667807471423 ORBCOMM FM19 1 25415U 98046C 26132.14489185 .00000647 00000+0 25140-3 0 9999 2 25415 44.9945 54.8715 0002007 108.8854 25.4454 14.39424925451587 ORBCOMM FM20 1 25416U 98046D 26132.16553368 .00000432 00000+0 18809-3 0 9993 2 25416 44.9945 62.3009 0000971 332.1673 27.9123 14.38011275451609 ORBCOMM FM27 1 25481U 98053G 26132.01953141 .00000442 00000+0 18751-3 0 9997 2 25481 45.0033 147.1269 0001974 279.0450 81.0176 14.39068433445024 ORBCOMM FM32 1 25982U 99065C 26132.00254522 .00000397 00000+0 18005-3 0 9994 2 25982 45.0168 344.5086 0005474 235.6573 124.3757 14.37080044381881 ORBCOMM FM109 1 40086U 14040A 26132.07333309 .00000178 00000+0 73829-4 0 9997 2 40086 47.0037 262.2252 0000798 49.9352 310.1604 14.58806326629070 ORBCOMM FM114 1 41179U 15081A 26131.81688121 .00000155 00000+0 68984-4 0 9994 2 41179 47.0034 173.9533 0001818 3.4905 356.5993 14.58816736552441 ORBCOMM FM110 1 41182U 15081D 26131.80560035 .00000219 00000+0 82755-4 0 9993 2 41182 47.0003 173.4573 0004052 267.4531 92.5891 14.58820822552311 ORBCOMM FM118 1 41183U 15081E 26132.11405549 .00000204 00000+0 79482-4 0 9994 2 41183 47.0027 172.3256 0003991 239.5756 120.4735 14.58842593552467 ORBCOMM FM112 1 41184U 15081F 26132.11879632 .00000330 00000+0 10634-3 0 9996 2 41184 46.9986 80.7922 0002390 29.4996 330.6024 14.58755259553689 ORBCOMM FM113 1 41185U 15081G 26132.16319764 .00000230 00000+0 84886-4 0 9997 2 41185 47.0005 80.9450 0001408 9.3378 350.7534 14.58817238553676 ORBCOMM FM108 1 41187U 15081J 26131.98880404 .00000395 00000+0 12001-3 0 9993 2 41187 47.0064 353.3349 0002326 22.9425 337.1564 14.58818501554791 ORBCOMM FM117 1 41188U 15081K 26132.02273775 .00000376 00000+0 11594-3 0 9992 2 41188 47.0027 351.8193 0002734 31.3633 328.7415 14.58816441554847 ORBCOMM FM116 1 41189U 15081L 26131.59252456 .00000187 00000+0 75882-4 0 9998 2 41189 47.0021 83.6406 0002390 271.4008 88.6604 14.58824755553590